Theta_e
360 355 349 353 350 351 351 351 357 361 362 363 363 363 364 360 359 362 360 360 363 354
358 356 355 358 359 353 357 354 358 360 360 361 362 364 364 357 361 361 361 359 362 358
357 359 359 360 358 358 359 360 359 361 360 361 363 363 366 359 361 362 358 355 361 362
355 356 358 356 358 360 360 359 361 362 361 360 361 363 363 362 361 360 361 360 360 361
357 357 355 355 357 359 361 365 364 363 360 360 359 361 361 358 357 359 359 359 360 358
356 356 355 355 358 359 361 362 362 363 361 362 360 361 361 360 359 359 359 359 359 359
357 357 356 358 360 360 362 362 361 362 363 362 361 361 361 360 360 359 359 359 359 358
360 360 360 359 360 360 361 364 361 362 359 359 358 357 358 362 361 360 359 359 359 358
361 361 360 360 360 360 361 362 363 360 358 357 360 332 334 344 361 361 359 357 359 360
360 360 362 360 360 360 360 361 360 359 358 357 342 324 325 330 354 360 361 359 359 358
357 359 361 360 359 360 362 361 360 358 358 357 338 319 320 323 349 356 358 358 358 356
356 355 356 354 356 354 355 355 357 356 354 354 348 318 319 330 349 351 353 355 348 342
351 343 348 342 344 344 345 341 336 329 329 321 331 316 315 329 346 349 347 347 347 318
344 344 347 347 345 344 336 331 325 321 319 319 315 322 313 318 342 340 336 336 335 326
Wind_Speed
9 7 9 11 8 8 6 5 5 7 6 5 5 5 4 6 6 3 4 3 3 4
10 11 8 7 9 8 6 4 6 8 8 7 7 6 5 7 5 4 5 4 5 6
11 11 9 7 9 8 5 8 5 8 9 9 8 8 8 7 7 6 6 6 2 6
12 11 10 10 10 10 9 10 10 10 9 9 9 10 9 9 8 6 7 7 6 7
12 11 12 11 11 10 10 9 10 9 10 10 10 9 11 11 10 9 9 9 9 8
13 13 13 12 12 11 10 9 10 9 10 9 10 10 12 11 10 10 9 9 8 8
14 14 12 12 11 11 10 9 9 10 9 9 10 10 10 11 10 9 10 9 10 8
12 12 11 11 10 11 10 8 9 8 10 9 8 7 10 9 9 10 10 10 9 10
12 12 12 11 11 11 10 9 9 8 7 7 4 9 7 7 7 9 9 10 9 9
9 11 12 11 11 12 12 10 9 8 7 7 7 7 5 6 7 6 6 8 7 6
10 11 9 11 12 11 8 9 8 7 5 4 6 4 2 3 7 6 6 4 3 4
9 8 8 7 7 2 4 3 4 4 5 4 6 7 6 4 5 4 4 2 3 3
7 6 5 2 4 8 6 4 3 5 7 8 6 9 8 7 5 3 5 3 2 7
4 4 5 5 3 4 6 7 6 6 6 5 6 5 8 6 3 2 2 1 1 5
Wind_Direction
212 217 211 203 228 216 217 204 189 204 223 225 226 226 228 233 247 189 247 261 312 302
205 229 229 220 211 219 229 227 209 218 217 230 238 243 238 250 244 257 245 254 243 273
215 213 226 215 225 243 243 242 251 218 226 226 229 239 237 248 225 248 261 253 226 270
209 214 219 221 222 226 223 234 231 236 236 241 243 235 227 252 280 247 256 262 259 258
209 213 210 217 224 226 234 230 235 228 233 233 233 235 233 235 254 234 256 252 255 258
210 209 214 212 215 221 227 236 237 232 232 239 245 248 235 231 240 253 254 249 253 268
209 212 216 216 215 216 216 228 235 241 241 244 248 247 235 226 231 244 249 244 250 259
207 212 214 219 211 225 225 218 226 224 236 240 252 248 248 240 249 251 250 254 253 247
203 206 211 213 216 221 227 221 226 234 231 248 262 55 18 325 266 246 244 250 254 261
222 216 208 209 210 219 223 224 224 229 221 212 99 49 7 328 280 269 235 233 241 251
227 236 228 213 217 215 219 226 219 209 198 203 99 69 31 323 276 267 270 259 247 271
205 192 185 196 216 121 223 225 192 139 152 172 122 40 19 305 265 231 229 315 336 303
165 147 189 207 167 140 124 130 122 74 65 38 22 43 357 306 303 299 260 231 205 42
154 189 194 219 226 173 126 131 105 87 66 65 43 11 359 354 268 228 248 232 167 37